• în România
  • Lista ţărilor
  • Pe 7 zile
  • Temperatura apei
  • Hartă satelitară
  • Meteo pe hartă
  • Widget-uri
  • user-avatar
    Intrare

    Meteo pe oră la Algiers

    Astăzi, 24 Mai, Joi

    Timp Temperatura Precipitaţii Vânt Presiune Umiditate
    00:00 +25°C° 0 mm 5 m/s 748 mmHg 49%
    01:00 +24°C° 0 mm 6 m/s 748 mmHg 47%
    02:00 +23°C° 0 mm 6 m/s 748 mmHg 46%
    03:00 +23°C° 0 mm 6 m/s 748 mmHg 45%
    04:00 +24°C° 0 mm 6 m/s 747 mmHg 47%
    05:00 +24°C° 0 mm 6 m/s 747 mmHg 48%
    06:00 +25°C° 0 mm 5 m/s 748 mmHg 50%
    07:00 +28°C° 0 mm 5 m/s 748 mmHg 44%
    08:00 +30°C° 0 mm 5 m/s 748 mmHg 37%
    09:00 +34°C° 0 mm 5 m/s 748 mmHg 31%
    10:00 +35°C° 0 mm 5 m/s 748 mmHg 28%
    11:00 +36°C° 0 mm 6 m/s 747 mmHg 26%
    12:00 +38°C° 0 mm 6 m/s 747 mmHg 23%
    13:00 +38°C° 0 mm 7 m/s 747 mmHg 23%
    14:00 +38°C° 0 mm 7 m/s 746 mmHg 23%
    15:00 +38°C° 0 mm 7 m/s 746 mmHg 24%
    16:00 +36°C° 0 mm 7 m/s 746 mmHg 28%
    17:00 +34°C° 0 mm 7 m/s 745 mmHg 32%
    18:00 +33°C° 0 mm 7 m/s 745 mmHg 36%
    19:00 +32°C° 0 mm 7 m/s 745 mmHg 35%
    20:00 +30°C° 0 mm 7 m/s 745 mmHg 33%
    21:00 +29°C° 0 mm 7 m/s 745 mmHg 32%
    22:00 +28°C° 0 mm 7 m/s 745 mmHg 34%
    23:00 +28°C° 0 mm 6 m/s 745 mmHg 35%

    Mâine, 25 Mai, Vineri

    Timp Temperatura Precipitaţii Vânt Presiune Umiditate
    00:00 +27°C° 0 mm 5 m/s 745 mmHg 37%
    01:00 +26°C° 0 mm 5 m/s 745 mmHg 39%
    02:00 +26°C° 0 mm 4 m/s 745 mmHg 42%
    03:00 +25°C° 0 mm 4 m/s 745 mmHg 45%
    04:00 +25°C° 0 mm 4 m/s 745 mmHg 48%
    05:00 +25°C° 0 mm 4 m/s 745 mmHg 52%
    06:00 +25°C° 0 mm 4 m/s 745 mmHg 55%
    07:00 +27°C° 0 mm 4 m/s 746 mmHg 49%
    08:00 +29°C° 0 mm 5 m/s 746 mmHg 42%
    09:00 +32°C° 0 mm 5 m/s 746 mmHg 36%
    10:00 +32°C° 0 mm 5 m/s 746 mmHg 37%
    11:00 +33°C° 0 mm 6 m/s 746 mmHg 38%
    12:00 +33°C° 0 mm 6 m/s 746 mmHg 39%
    13:00 +32°C° 0 mm 5 m/s 746 mmHg 44%
    14:00 +30°C° 0 mm 5 m/s 746 mmHg 49%
    15:00 +29°C° 0 mm 4 m/s 745 mmHg 54%
    16:00 +27°C° 0 mm 3 m/s 745 mmHg 61%
    17:00 +26°C° 0 mm 3 m/s 746 mmHg 69%
    18:00 +24°C° 0 mm 2 m/s 746 mmHg 77%
    19:00 +23°C° 0 mm 2 m/s 746 mmHg 80%
    20:00 +21°C° 0 mm 2 m/s 747 mmHg 82%
    21:00 +21°C° 0 mm 1 m/s 747 mmHg 85%
    22:00 +21°C° 0 mm 1 m/s 747 mmHg 85%
    23:00 +21°C° 0 mm 1 m/s 747 mmHg 86%

    Poimâine, 26 Mai, Sâmbătă

    Timp Temperatura Precipitaţii Vânt Presiune Umiditate
    00:00 +21°C° 0 mm 1 m/s 747 mmHg 86%
    01:00 +21°C° 0 mm 1 m/s 747 mmHg 85%
    02:00 +21°C° 0 mm 1 m/s 747 mmHg 85%
    03:00 +20°C° 0 mm 1 m/s 746 mmHg 84%
    04:00 +21°C° 0 mm 1 m/s 746 mmHg 80%
    05:00 +22°C° 0 mm 1 m/s 746 mmHg 75%
    06:00 +23°C° 0 mm 1 m/s 746 mmHg 71%
    07:00 +25°C° 0 mm 1 m/s 746 mmHg 63%
    08:00 +27°C° 0 mm 2 m/s 746 mmHg 55%
    09:00 +29°C° 0 mm 2 m/s 746 mmHg 48%
    10:00 +30°C° 0 mm 2 m/s 746 mmHg 45%
    11:00 +31°C° 0 mm 3 m/s 746 mmHg 42%
    12:00 +33°C° 0 mm 3 m/s 746 mmHg 39%
    13:00 +33°C° 0 mm 3 m/s 746 mmHg 43%
    14:00 +31°C° 0 mm 3 m/s 746 mmHg 47%
    15:00 +30°C° 0 mm 3 m/s 745 mmHg 50%
    16:00 +29°C° 0 mm 3 m/s 746 mmHg 57%
    17:00 +28°C° 0 mm 3 m/s 746 mmHg 63%
    18:00 +27°C° 0 mm 3 m/s 746 mmHg 70%
    19:00 +26°C° 0,5 mm 3 m/s 746 mmHg 73%
    20:00 +25°C° 0,5 mm 3 m/s 746 mmHg 77%
    21:00 +24°C° 0,5 mm 3 m/s 747 mmHg 80%
    22:00 +25°C° 0,1 mm 3 m/s 747 mmHg 74%
    23:00 +26°C° 0,1 mm 3 m/s 746 mmHg 67%

    27 Mai, Duminică

    Timp Temperatura Precipitaţii Vânt Presiune Umiditate
    00:00 +26°C° 0,1 mm 3 m/s 746 mmHg 61%
    01:00 +26°C° 0,1 mm 3 m/s 746 mmHg 63%
    02:00 +26°C° 0,1 mm 3 m/s 747 mmHg 64%
    03:00 +25°C° 0,1 mm 4 m/s 747 mmHg 66%
    04:00 +25°C° 0,1 mm 3 m/s 747 mmHg 68%
    05:00 +25°C° 0,1 mm 2 m/s 747 mmHg 70%
    06:00 +25°C° 0,1 mm 1 m/s 747 mmHg 72%
    07:00 +27°C° 0 mm 2 m/s 747 mmHg 63%
    08:00 +29°C° 0 mm 2 m/s 747 mmHg 54%
    09:00 +31°C° 0 mm 2 m/s 747 mmHg 45%
    10:00 +33°C° 0 mm 3 m/s 747 mmHg 45%
    11:00 +33°C° 0 mm 3 m/s 747 mmHg 45%
    12:00 +34°C° 0 mm 4 m/s 747 mmHg 45%
    13:00 +33°C° 0,3 mm 4 m/s 746 mmHg 47%
    14:00 +33°C° 0,3 mm 5 m/s 745 mmHg 50%
    15:00 +32°C° 0,3 mm 5 m/s 745 mmHg 52%
    16:00 +29°C° 5,9 mm 4 m/s 745 mmHg 64%
    17:00 +26°C° 5,9 mm 4 m/s 746 mmHg 76%
    18:00 +22°C° 5,9 mm 3 m/s 746 mmHg 89%
    19:00 +22°C° 2,6 mm 3 m/s 746 mmHg 89%
    20:00 +23°C° 2,6 mm 2 m/s 747 mmHg 90%
    21:00 +23°C° 2,6 mm 2 m/s 747 mmHg 91%
    22:00 +21°C° 1,5 mm 2 m/s 747 mmHg 91%
    23:00 +21°C° 1,5 mm 2 m/s 747 mmHg 91%

    28 Mai, Luni

    Timp Temperatura Precipitaţii Vânt Presiune Umiditate
    00:00 +21°C° 1,5 mm 2 m/s 747 mmHg 91%
    01:00 +21°C° 0,2 mm 2 m/s 747 mmHg 91%
    02:00 +22°C° 0,2 mm 1 m/s 746 mmHg 90%
    03:00 +22°C° 0,2 mm 1 m/s 746 mmHg 89%
    04:00 +22°C° 0,1 mm 1 m/s 746 mmHg 89%
    05:00 +21°C° 0,1 mm 2 m/s 746 mmHg 89%
    06:00 +21°C° 0,1 mm 2 m/s 747 mmHg 89%
    07:00 +21°C° 0,1 mm 2 m/s 747 mmHg 89%
    08:00 +21°C° 0,1 mm 3 m/s 747 mmHg 89%
    09:00 +22°C° 0,1 mm 3 m/s 747 mmHg 88%
    10:00 +21°C° 0,1 mm 3 m/s 747 mmHg 89%
    11:00 +21°C° 0,1 mm 3 m/s 747 mmHg 89%
    12:00 +21°C° 0,1 mm 2 m/s 747 mmHg 90%
    13:00 +23°C° 0,1 mm 2 m/s 747 mmHg 86%
    14:00 +23°C° 0,1 mm 2 m/s 747 mmHg 83%
    15:00 +24°C° 0,1 mm 2 m/s 747 mmHg 79%
    16:00 +24°C° 0 mm 2 m/s 747 mmHg 82%
    17:00 +23°C° 0 mm 2 m/s 747 mmHg 84%
    18:00 +23°C° 0 mm 2 m/s 747 mmHg 86%
    19:00 +22°C° 0 mm 1 m/s 747 mmHg 88%
    20:00 +22°C° 0 mm 1 m/s 748 mmHg 90%
    21:00 +21°C° 0 mm 1 m/s 748 mmHg 92%
    22:00 +21°C° 0 mm 1 m/s 748 mmHg 93%
    23:00 +21°C° 0 mm 1 m/s 748 mmHg 93%

    29 Mai, Marţi

    Timp Temperatura Precipitaţii Vânt Presiune Umiditate
    00:00 +20°C° 0 mm 1 m/s 748 mmHg 94%
    01:00 +20°C° 0 mm 1 m/s 748 mmHg 94%
    02:00 +20°C° 0 mm 1 m/s 747 mmHg 94%
    03:00 +20°C° 0 mm 1 m/s 747 mmHg 93%
    04:00 +20°C° 0 mm 1 m/s 747 mmHg 92%
    05:00 +21°C° 0 mm 1 m/s 747 mmHg 91%
    06:00 +21°C° 0 mm 1 m/s 747 mmHg 90%
    07:00 +22°C° 0 mm 1 m/s 747 mmHg 83%
    08:00 +23°C° 0 mm 1 m/s 748 mmHg 75%
    09:00 +24°C° 0 mm 1 m/s 748 mmHg 68%
    10:00 +25°C° 0 mm 2 m/s 748 mmHg 66%
    11:00 +26°C° 0 mm 2 m/s 747 mmHg 63%
    12:00 +26°C° 0 mm 3 m/s 747 mmHg 60%
    13:00 +26°C° 0 mm 3 m/s 747 mmHg 60%
    14:00 +26°C° 0 mm 3 m/s 747 mmHg 60%
    15:00 +26°C° 0 mm 3 m/s 747 mmHg 59%
    16:00 +26°C° 0 mm 2 m/s 747 mmHg 61%
    17:00 +25°C° 0 mm 2 m/s 747 mmHg 64%
    18:00 +24°C° 0 mm 2 m/s 747 mmHg 66%
    19:00 +23°C° 0 mm 1 m/s 747 mmHg 69%
    20:00 +22°C° 0 mm 1 m/s 748 mmHg 73%
    21:00 +21°C° 0 mm 1 m/s 748 mmHg 77%
    22:00 +21°C° 0 mm 1 m/s 748 mmHg 77%
    23:00 +21°C° 0 mm 1 m/s 748 mmHg 78%
    Arată mai mult